Location: El Centro
(32.7920°N, 115.5620°W)
Time: 00:22:04
(UTC-07:00)

Amateur Radio Satellites - All Passes

Search period start: 05 May 2016 23:52
Search period end: 06 May 2016 23:52
Location: El Centro, 32.7920°N, 115.5620°W

Satellite Date Start Highest point End Downlink Frequencies (MHz)
Time Altitude Azimuth
O/OREOS (USA 219) 06 May 00:09:05 00:13:31 56° 69° (ENE) 00:17:54 437.305
CUBEBUG 1 06 May 00:13:32 00:17:33 36° 262° (W) 00:21:37 437.445
ESTCUBE 1 06 May 00:20:29 00:23:54 21° 264° (W) 00:27:20 437.505/2401.250
DUCHIFAT 1 06 May 00:33:50 00:37:55 51° 285° (WNW) 00:41:58 145.980
UKube-1 06 May 00:35:06 00:38:45 27° 263° (W) 00:42:26 .
DX 1 06 May 00:35:36 00:38:59 22° 264° (W) 00:42:23 434.975-435.025
QB50P2 06 May 00:39:24 00:43:18 37° 287° (WNW) 00:47:11 145.880/145.840
POLYITAN 1 06 May 00:41:38 00:45:31 36° 287° (WNW) 00:49:21 437.675
POPSAT HIP 1 06 May 00:43:16 00:47:08 36° 287° (WNW) 00:50:58 437.405
QB50P1 06 May 00:46:13 00:50:00 32° 287° (WNW) 00:53:44 145.935-145.965
VELOX 1 06 May 00:52:33 00:54:40 13° 267° (W) 00:56:47 145.980
SPROUT 06 May 00:58:10 01:01:57 30° 263° (W) 01:05:45 437.525
Cosmos 2499 06 May 00:58:45 01:05:51 83° 94° (E) 01:12:57 435.465 / 435.565
Oscar 19 06 May 00:58:54 01:01:46 15° 93° (E) 01:04:37 437.125/150
BUGSAT 1 06 May 01:00:48 01:04:52 53° 285° (WNW) 01:08:51 437.445
DANDE 06 May 01:01:01 01:05:46 18° 72° (ENE) 01:10:54 436.750
PCSat 06 May 01:09:45 01:14:55 46° 250° (WSW) 01:20:03 145.827
JAS-2 06 May 01:13:59 01:21:37 51° 99° (E) 01:28:55 435.910
TISAT 1 06 May 01:18:15 01:22:28 64° 259° (W) 01:26:42 437.305
NANOSAT C BR1 06 May 01:20:17 01:22:33 14° 292° (WNW) 01:24:49 145.865
ITUPSAT 1 06 May 01:20:28 01:23:56 20° 68° (ENE) 01:27:25 437.325
GONETS M04 06 May 01:26:03 01:34:06 39° 283° (WNW) 01:42:11
CUSAT 1 06 May 01:26:55 01:34:30 56° 79° (E) 01:42:20 437.405
SWISSCUBE 06 May 01:27:19 01:31:19 27° 70° (ENE) 01:35:18 437.505
RS-15 06 May 01:52:00 01:54:08 10° 356° (N) 01:56:15 29.354- 29.394
BEESAT 06 May 01:59:18 02:03:57 56° 74° (ENE) 02:08:37 436.000
BEESAT 3 06 May 02:03:04 02:05:59 19° 54° (NE) 02:08:53 437.485
BEESAT 2 06 May 02:17:39 02:20:16 17° 52° (NE) 02:22:51 435.950
ITAMSAT 1 06 May 02:25:02 02:28:13 16° 94° (E) 02:31:24 435.822/435.867
Oscar 19 06 May 02:36:17 02:41:19 51° 286° (WNW) 02:46:18 437.125/150
DANDE 06 May 02:41:36 02:48:58 82° 263° (W) 02:57:23 436.750
Cosmos 2499 06 May 02:57:04 02:59:46 12° 292° (WNW) 03:02:29 435.465 / 435.565
ITUPSAT 1 06 May 02:57:15 03:01:31 33° 262° (W) 03:05:48 437.325
JAS-2 06 May 02:59:33 03:06:08 31° 294° (WNW) 03:12:36 435.910
Gurwin Techsat 1B 06 May 02:59:46 03:05:05 80° 284° (WNW) 03:10:23 435.225
AO-7 06 May 03:01:02 03:06:06 17° 94° (E) 03:11:08 29.400- 29.500
SWISSCUBE 06 May 03:05:12 03:09:01 24° 264° (W) 03:12:50 437.505
KKS-1 06 May 03:05:35 03:09:34 32° 72° (ENE) 03:13:34 437.445
CUSAT 1 06 May 03:09:53 03:16:13 28° 272° (W) 03:22:41 437.405
STARS 06 May 03:13:08 03:16:20 20° 69° (ENE) 03:19:32 437.465
MOZHAYETS 4 06 May 03:35:05 03:39:24 43° 74° (ENE) 03:43:43
BEESAT 3 06 May 03:40:19 03:43:39 26° 248° (WSW) 03:46:58 437.485
BEESAT 06 May 03:40:34 03:42:01 11° 267° (W) 03:43:27 436.000
BEESAT 2 06 May 03:54:35 03:58:11 33° 247° (WSW) 04:01:44 435.950
ITAMSAT 1 06 May 04:02:54 04:07:51 47° 287° (WNW) 04:12:48 435.822/435.867
YUBILEINY 06 May 04:03:12 04:06:17 12° 65° (ENE) 04:09:20 435.215
RS-15 06 May 04:05:43 04:14:10 20° 34° (NNE) 04:22:36 29.354- 29.394
AIST 2 06 May 04:19:04 04:22:25 23° 55° (NE) 04:25:44 435.215
DANDE 06 May 04:27:53 04:31:07 13° 275° (W) 04:34:30 436.750
HORYU 2 06 May 04:28:59 04:31:55 17° 95° (E) 04:34:50 437.375
KKS-1 06 May 04:43:07 04:46:10 18° 265° (W) 04:49:12 437.445
Cosmos 2491 06 May 04:44:04 04:47:41 13° 78° (ENE) 04:51:18 435.465 / 435.565
ISS 06 May 04:46:20 04:49:10 28° 130° (SE) 04:52:00 145.825
STARS 06 May 04:48:34 04:52:27 30° 262° (W) 04:56:21 437.465
AO-7 06 May 04:51:08 04:59:30 80° 289° (WNW) 05:07:51 29.400- 29.500
MOZHAYETS 4 06 May 05:14:27 05:16:43 14° 267° (W) 05:18:59
CUBESAT XI-V 06 May 05:30:05 05:34:40 85° 80° (E) 05:39:18 437.345
YUBILEINY 06 May 05:55:38 06:04:23 80° 84° (E) 06:13:08 435.215
AIST 2 06 May 05:57:26 06:00:48 24° 249° (WSW) 06:04:10 435.215
CUTE-I 06 May 05:59:44 06:03:24 19° 95° (E) 06:07:05 437.470
SO-50 06 May 06:03:06 06:08:00 87° 295° (WNW) 06:12:57 436.795
HORYU 2 06 May 06:04:34 06:08:30 32° 288° (WNW) 06:12:24 437.375
BRITE-PL 06 May 06:13:35 06:18:29 30° 95° (E) 06:23:11 437.365/2234.400
RS-15 06 May 06:17:06 06:29:26 69° 59° (ENE) 06:41:36 29.354- 29.394
ISS 06 May 06:23:01 06:25:36 21° 324° (NW) 06:28:11 145.825
NOAA 15 06 May 06:28:20 06:33:35 59° 101° (E) 06:38:48 137.62
Cosmos 2491 06 May 06:34:18 06:43:08 87° 95° (E) 06:52:01 435.465 / 435.565
STRAND 1 06 May 06:42:27 06:47:11 40° 72° (ENE) 06:51:55 437.568
NOAA 18 06 May 06:43:30 06:48:57 70° 103° (ESE) 06:54:23 137.9125
Cubesat XI-IV 06 May 06:44:07 06:49:20 54° 101° (E) 06:54:32 437.490
DOVE 4 06 May 06:45:39 06:46:38 11° 90° (E) 06:47:36 437.250
AO-7 06 May 06:46:52 06:50:58 15° 306° (NW) 06:55:05 29.400- 29.500
Cosmos 2504 06 May 06:59:31 07:07:08 54° 81° (E) 07:15:17 435.465 / 435.565
GOMX 1 06 May 07:05:34 07:10:40 45° 98° (E) 07:15:27 467.674
LilacSat-2 06 May 07:14:36 07:18:19 55° 284° (WNW) 07:21:59 437.200
CUTE-I 06 May 07:38:34 07:43:34 43° 288° (WNW) 07:48:34 437.470
PHONESAT 2.4 06 May 07:41:09 07:44:14 62° 151° (SSE) 07:47:20 2401.200-2431.200
SO-50 06 May 07:48:09 07:49:11 11° 315° (NW) 07:50:12 436.795
M-CUBED/EXP-1 PRIME 06 May 07:50:38 07:54:20 67° 106° (ESE) 07:57:45 437.505
BRITE-PL 06 May 07:51:54 07:56:48 31° 290° (WNW) 08:01:32 437.365/2234.400
YUBILEINY 06 May 07:55:09 08:00:03 17° 280° (W) 08:04:59 435.215
CUTE 1.7 + AOD 2 06 May 07:58:48 08:01:47 19° 95° (E) 08:04:45 437.475
AUBIESAT-1 06 May 08:05:49 08:09:30 88° 107° (ESE) 08:12:55 437.475
NOAA 15 06 May 08:09:58 08:12:48 15° 295° (WNW) 08:15:38 137.62
COMPASS 1 06 May 08:15:39 08:17:56 14° 94° (E) 08:20:12 437.405
SEEDS 06 May 08:18:37 08:21:58 23° 96° (E) 08:25:19 437.485
DOVE 4 06 May 08:19:51 08:24:46 61° 285° (WNW) 08:29:22 437.250
STRAND 1 06 May 08:22:57 08:26:27 19° 265° (W) 08:29:56 437.568
PRISM 06 May 08:23:13 08:27:17 83° 257° (WSW) 08:31:24 437.425
Cubesat XI-IV 06 May 08:25:48 08:28:54 16° 295° (WNW) 08:32:00 437.490
NOAA 18 06 May 08:26:38 08:28:57 13° 297° (WNW) 08:31:15 137.9125
RS-15 06 May 08:30:59 08:40:55 30° 257° (WSW) 08:50:48 29.354- 29.394
CINEMA 3 06 May 08:34:38 08:39:03 54° 100° (E) 08:43:14 145.822/145.860
Cosmos 2491 06 May 08:36:07 08:41:00 16° 293° (WNW) 08:45:56 435.465 / 435.565
AAUSAT CUBESAT 2 06 May 08:41:36 08:44:59 24° 96° (E) 08:48:21 437.432
UWE-3 06 May 08:42:02 08:43:01 11° 92° (E) 08:43:59 435.000/436.395/437.385
GOMX 1 06 May 08:44:44 08:48:16 18° 294° (WNW) 08:51:40 467.674
HO-68 06 May 08:52:30 08:59:41 77° 104° (ESE) 09:06:51 435.675
Cosmos 2504 06 May 08:53:58 09:00:01 25° 274° (W) 09:06:23 435.465 / 435.565
CUBEBUG 2 06 May 08:55:41 08:59:12 25° 96° (E) 09:02:39 437.445
CANX-2 06 May 09:01:29 09:05:38 59° 284° (WNW) 09:09:47 2200.000
ZACube-1 06 May 09:02:51 09:04:45 13° 93° (E) 09:06:38 437.345
ANTELSAT 06 May 09:10:19 09:12:01 12° 67° (ENE) 09:13:43 437.575/2403.000
PHONESAT 2.4 06 May 09:18:28 09:21:14 27° 346° (NNW) 09:24:00 2401.200-2431.200
DELFI C3 06 May 09:24:13 09:25:48 12° 93° (E) 09:27:23 145.870
CUTE 1.7 + AOD 2 06 May 09:34:00 09:37:34 27° 288° (WNW) 09:41:10 437.475
Oscar 11 06 May 09:35:15 09:39:19 41° 99° (E) 09:43:23 145.826/435.025
GONETS M04 06 May 09:47:38 09:51:41 14° 66° (ENE) 09:55:42
COMPASS 1 06 May 09:49:47 09:53:34 34° 287° (WNW) 09:57:20 437.405
FUNcube-1 06 May 09:52:37 09:56:41 53° 100° (E) 10:00:42 145.935
SEEDS 06 May 09:54:16 09:57:31 22° 289° (WNW) 10:00:47 437.485
UNISAT 6 06 May 10:01:41 10:06:08 47° 74° (ENE) 10:10:31 437.425
CINEMA 3 06 May 10:14:29 10:15:34 11° 295° (WNW) 10:16:40 145.822/145.860
UWE-3 06 May 10:15:43 10:19:42 44° 286° (WNW) 10:23:37 435.000/436.395/437.385
AAUSAT CUBESAT 2 06 May 10:17:11 10:20:18 21° 289° (WNW) 10:23:25 437.432
TIGRISAT 06 May 10:17:36 10:22:14 69° 76° (ENE) 10:26:47 435.000
NANOSAT C BR1 06 May 10:32:08 10:34:48 16° 69° (ENE) 10:37:29 145.865
CUBEBUG 2 06 May 10:32:36 10:35:38 19° 290° (WNW) 10:38:38 437.445
ZACube-1 06 May 10:37:20 10:41:09 37° 286° (WNW) 10:44:57 437.345
HO-68 06 May 10:42:16 10:46:34 17° 300° (WNW) 10:50:52 435.675
ANTELSAT 06 May 10:43:41 10:48:14 55° 260° (W) 10:52:44 437.575/2403.000
Cosmos 2499 06 May 10:54:45 11:00:46 23° 73° (ENE) 11:07:03 435.465 / 435.565
PHONESAT 2.4 06 May 10:56:16 10:58:39 19° 3° (N) 11:01:02 2401.200-2431.200
DELFI C3 06 May 10:57:04 11:00:46 37° 286° (WNW) 11:04:28 145.870
HUMSAT D 06 May 11:05:09 11:09:13 80° 284° (WNW) 11:13:18 437.325/437.525
VELOX 1 06 May 11:10:40 11:12:10 11° 93° (E) 11:13:40 145.980
Oscar 11 06 May 11:12:55 11:15:04 14° 292° (WNW) 11:17:12 145.826/435.025
50 SAT 06 May 11:20:27 11:22:45 16° 95° (E) 11:25:02 437.505
DUCHIFAT 1 06 May 11:20:49 11:25:01 61° 76° (ENE) 11:29:13 145.980
AO-85 06 May 11:24:36 11:30:00 77° 118° (ESE) 11:35:28 145.980
JAS-2 06 May 11:25:31 11:27:40 12° 57° (ENE) 11:29:52 435.910
QB50P2 06 May 11:26:53 11:31:10 87° 81° (E) 11:35:28 145.880/145.840
POLYITAN 1 06 May 11:29:05 11:33:23 89° 70° (ENE) 11:37:42 437.675
POPSAT HIP 1 06 May 11:30:34 11:34:51 89° 79° (ENE) 11:39:10 437.405
QB50P1 06 May 11:33:24 11:37:40 83° 257° (WSW) 11:41:58 145.935-145.965
AIST 1 06 May 11:34:31 11:38:52 61° 266° (W) 11:43:11
UNISAT 6 06 May 11:40:53 11:43:00 13° 267° (W) 11:45:07 437.425
GONETS M04 06 May 11:40:55 11:49:41 87° 83° (E) 11:58:23
AISAT 06 May 11:41:14 11:45:09 29° 98° (E) 11:49:01 437.250
BUGSAT 1 06 May 11:45:35 11:49:42 54° 75° (ENE) 11:53:52 437.445
CUBEBUG 1 06 May 12:06:07 12:10:29 57° 100° (E) 12:14:49 437.445
NANOSAT C BR1 06 May 12:06:24 12:10:14 33° 262° (W) 12:14:07 145.865
Oscar 19 06 May 12:11:55 12:14:44 15° 65° (ENE) 12:17:32 437.125/150
ESTCUBE 1 06 May 12:16:03 12:20:35 74° 285° (WNW) 12:25:06 437.505/2401.250
UKube-1 06 May 12:25:47 12:30:07 68° 102° (ESE) 12:34:25 .
DX 1 06 May 12:26:58 12:31:22 89° 89° (E) 12:35:45 434.975-435.025
PHONESAT 2.4 06 May 12:33:01 12:35:59 38° 19° (NNE) 12:38:58 2401.200-2431.200
O/OREOS (USA 219) 06 May 12:40:51 12:42:16 11° 98° (E) 12:43:40 437.305
Gurwin Techsat 1B 06 May 12:41:07 12:42:23 11° 63° (ENE) 12:43:39 435.225
VELOX 1 06 May 12:44:32 12:48:51 49° 286° (WNW) 12:53:07 145.980
Cosmos 2499 06 May 12:46:20 12:54:12 63° 268° (W) 13:02:36 435.465 / 435.565
SPROUT 06 May 12:47:59 12:52:14 63° 101° (E) 12:56:27 437.525
ISS 06 May 12:53:23 12:56:34 49° 42° (NE) 12:59:44 145.825
50 SAT 06 May 12:53:31 12:56:28 23° 288° (WNW) 12:59:26 437.505
JAS-2 06 May 13:05:28 13:11:25 87° 73° (ENE) 13:18:14 435.910
TISAT 1 06 May 13:07:07 13:10:40 26° 97° (E) 13:14:11 437.305
AO-85 06 May 13:07:59 13:11:04 15° 312° (NW) 13:14:10 145.980
AISAT 06 May 13:18:09 13:21:23 20° 291° (WNW) 13:24:36 437.250
ITAMSAT 1 06 May 13:39:07 13:42:21 17° 66° (ENE) 13:45:34 435.822/435.867
GONETS M04 06 May 13:41:01 13:45:14 15° 281° (W) 13:49:26
CUBEBUG 1 06 May 13:45:14 13:46:13 11° 294° (WNW) 13:47:13 437.445
Oscar 19 06 May 13:48:28 13:53:31 55° 259° (W) 13:58:37 437.125/150
AO-7 06 May 13:56:21 14:01:24 18° 56° (NE) 14:06:27 29.400- 29.500
PCSat 06 May 14:03:37 14:08:42 43° 110° (ESE) 14:13:49 145.827
BEESAT 06 May 14:04:40 14:08:13 21° 96° (E) 14:11:44 436.000
PHONESAT 2.4 06 May 14:09:55 14:12:49 33° 213° (SSW) 14:15:41 2401.200-2431.200
Gurwin Techsat 1B 06 May 14:16:18 14:21:36 78° 257° (WSW) 14:26:56 435.225
O/OREOS (USA 219) 06 May 14:16:39 14:21:07 51° 291° (WNW) 14:25:37 437.305
CUSAT 1 06 May 14:27:15 14:30:36 50° 93° (E) 14:35:00 437.405
ISS 06 May 14:31:59 14:32:39 10° 235° (SW) 14:33:18 145.825
SO-50 06 May 14:39:37 14:43:31 25° 53° (NE) 14:47:18 436.795
TISAT 1 06 May 14:43:04 14:46:07 20° 290° (WNW) 14:49:08 437.305
JAS-2 06 May 14:56:49 14:57:28 10° 274° (W) 14:58:07 435.910
ITUPSAT 1 06 May 15:01:30 15:06:17 89° 87° (E) 15:11:04 437.325
SWISSCUBE 06 May 15:08:40 15:13:24 66° 285° (WNW) 15:18:07 437.505
ITAMSAT 1 06 May 15:16:24 15:21:22 48° 260° (W) 15:26:22 435.822/435.867
MOZHAYETS 4 06 May 15:35:51 15:38:23 15° 94° (E) 15:40:56
BEESAT 06 May 15:41:46 15:45:59 32° 289° (WNW) 15:50:11 436.000
AO-7 06 May 15:44:48 15:53:06 87° 253° (WSW) 16:01:26 29.400- 29.500
PCSat 06 May 15:48:05 15:52:14 22° 305° (NW) 15:56:24 145.827
DANDE 06 May 15:49:25 15:52:04 31° 285° (WNW) 15:55:20 436.750
JUGNU 06 May 16:03:02 16:06:57 18° 170° (S) 16:10:53 437.505
SO-50 06 May 16:19:58 16:23:55 28° 249° (WSW) 16:27:43 436.795
KKS-1 06 May 16:36:49 16:41:14 65° 285° (WNW) 16:45:38 437.445
STARS 06 May 16:41:44 16:46:08 69° 102° (ESE) 16:50:28 437.465
Cosmos 2491 06 May 16:50:57 16:58:49 35° 75° (ENE) 17:06:34 435.465 / 435.565
HORYU 2 06 May 16:57:28 17:01:53 62° 259° (W) 17:06:19 437.375
YUBILEINY 06 May 16:58:34 17:03:34 17° 80° (E) 17:08:34 435.215
MOZHAYETS 4 06 May 17:11:24 17:15:40 41° 287° (WNW) 17:19:58
SRMSAT 06 May 17:11:40 17:14:35 14° 165° (SSE) 17:17:31 437.500
CUTE-I 06 May 17:17:26 17:21:19 21° 67° (ENE) 17:25:11 437.470
BRITE-PL 06 May 17:20:27 17:23:58 20° 67° (ENE) 17:27:39 437.365/2234.400
BEESAT 3 06 May 17:26:14 17:30:05 54° 300° (WNW) 17:33:57 437.485
CUBESAT XI-V 06 May 17:31:24 17:35:31 30° 97° (E) 17:39:38 437.345
BEESAT 2 06 May 17:41:54 17:45:50 65° 299° (WNW) 17:49:48 435.950
AO-7 06 May 17:43:14 17:46:42 13° 268° (W) 17:50:11 29.400- 29.500
NOAA 15 06 May 17:43:55 17:49:05 60° 74° (ENE) 17:54:17 137.62
JUGNU 06 May 17:50:50 17:55:20 23° 180° (S) 17:59:51 437.505
LilacSat-2 06 May 17:52:08 17:55:40 34° 74° (ENE) 17:59:11 437.200
Cubesat XI-IV 06 May 18:01:40 18:06:53 58° 74° (ENE) 18:12:06 437.490
NOAA 18 06 May 18:05:19 18:10:50 87° 75° (ENE) 18:16:21 137.9125
GOMX 1 06 May 18:08:46 18:13:11 30° 70° (ENE) 18:17:49 467.674
AIST 2 06 May 18:13:53 18:15:54 13° 108° (ESE) 18:17:57 435.215
M-CUBED/EXP-1 PRIME 06 May 18:31:45 18:36:15 45° 69° (ENE) 18:40:40 437.505
AUBIESAT-1 06 May 18:46:29 18:51:00 54° 71° (ENE) 18:55:27 437.475
Cosmos 2491 06 May 18:47:32 18:55:36 42° 272° (W) 19:03:37 435.465 / 435.565
YUBILEINY 06 May 18:50:31 18:59:15 79° 276° (W) 19:08:01 435.215
CUTE-I 06 May 18:56:05 19:01:02 40° 261° (W) 19:06:01 437.470
BRITE-PL 06 May 18:57:31 19:02:01 39° 263° (W) 19:06:54 437.365/2234.400
STRAND 1 06 May 18:58:08 19:01:49 20° 95° (E) 19:05:28 437.568
SRMSAT 06 May 18:58:39 19:03:06 22° 174° (S) 19:07:35 437.500
CUBESAT XI-V 06 May 19:09:06 19:12:42 22° 290° (WNW) 19:16:16 437.345
HO-68 06 May 19:16:33 19:22:56 36° 67° (ENE) 19:29:19 435.675
DOVE 4 06 May 19:19:29 19:24:36 81° 76° (ENE) 19:29:54 437.250
NOAA 15 06 May 19:26:53 19:29:11 13° 267° (W) 19:31:29 137.62
LilacSat-2 06 May 19:28:27 19:30:02 12° 267° (W) 19:31:38 437.200
CINEMA 3 06 May 19:31:10 19:35:36 33° 72° (ENE) 19:40:02 145.822/145.860
Cosmos 2504 06 May 19:33:21 19:40:16 49° 90° (E) 19:47:04 435.465 / 435.565
JUGNU 06 May 19:39:47 19:43:43 18° 190° (S) 19:47:42 437.505
Cubesat XI-IV 06 May 19:44:39 19:47:14 14° 267° (W) 19:49:51 437.490
GOMX 1 06 May 19:46:59 19:51:10 26° 266° (W) 19:55:34 467.674
CANX-2 06 May 19:49:34 19:53:39 52° 76° (ENE) 19:57:44 2200.000
AIST 2 06 May 19:50:07 19:54:00 40° 302° (WNW) 19:57:55 435.215
CUBEBUG 2 06 May 19:50:08 19:52:52 16° 68° (ENE) 19:55:35 437.445
AO-85 06 May 20:02:25 20:05:50 20° 50° (NE) 20:09:02 145.980
M-CUBED/EXP-1 PRIME 06 May 20:08:05 20:10:51 15° 261° (W) 20:13:38 437.505
PRISM 06 May 20:10:03 20:13:01 19° 96° (E) 20:15:59 437.425
CUTE 1.7 + AOD 2 06 May 20:21:23 20:25:34 70° 259° (W) 20:29:46 437.475
AUBIESAT-1 06 May 20:23:42 20:25:37 12° 262° (W) 20:27:32 437.475
Oscar 11 06 May 20:26:30 20:29:31 19° 70° (ENE) 20:32:31 145.826/435.025
RS-15 06 May 20:34:07 20:45:06 68° 112° (ESE) 20:56:41 29.354- 29.394
COMPASS 1 06 May 20:35:29 20:39:36 84° 78° (ENE) 20:43:45 437.405
STRAND 1 06 May 20:36:20 20:41:02 38° 289° (WNW) 20:45:45 437.568
SEEDS 06 May 20:40:33 20:44:38 56° 260° (W) 20:48:44 437.485
FUNcube-1 06 May 20:43:55 20:47:35 25° 72° (ENE) 20:51:13 145.935
SRMSAT 06 May 20:47:09 20:51:41 22° 185° (S) 20:56:15 437.500
YUBILEINY 06 May 20:54:28 20:57:23 12° 295° (WNW) 21:00:19 435.215
AAUSAT CUBESAT 2 06 May 21:01:55 21:05:57 55° 260° (W) 21:10:00 437.432
HO-68 06 May 21:04:05 21:10:31 36° 261° (W) 21:16:59 435.675
UWE-3 06 May 21:07:16 21:11:54 81° 77° (ENE) 21:16:28 435.000/436.395/437.385
CINEMA 3 06 May 21:08:46 21:12:41 23° 265° (W) 21:16:37 145.822/145.860
CUBEBUG 2 06 May 21:24:36 21:29:07 43° 261° (W) 21:33:33 437.445
ZACube-1 06 May 21:27:42 21:32:15 89° 257° (WSW) 21:36:43 437.345
Cosmos 2504 06 May 21:28:18 21:33:49 23° 286° (WNW) 21:39:20 435.465 / 435.565
DELFI C3 06 May 21:38:13 21:42:06 63° 76° (ENE) 21:46:00 145.870
AO-85 06 May 21:42:18 21:46:25 34° 248° (WSW) 21:50:12 145.980
PRISM 06 May 21:44:45 21:48:17 27° 289° (WNW) 21:51:48 437.425
HUMSAT D 06 May 21:51:58 21:55:51 37° 74° (ENE) 21:59:42 437.325/437.525
UNISAT 6 06 May 21:59:51 22:01:44 13° 93° (E) 22:03:37 437.425
Oscar 11 06 May 22:01:39 22:05:24 29° 263° (W) 22:09:09 145.826/435.025
TIGRISAT 06 May 22:14:46 22:17:46 18° 95° (E) 22:20:44 435.000
FUNcube-1 06 May 22:20:09 22:23:43 23° 264° (W) 22:27:14 145.935
AISAT 06 May 22:35:20 22:38:05 16° 68° (ENE) 22:40:49 437.250
SRMSAT 06 May 22:36:55 22:40:14 15° 194° (SSW) 22:43:33 437.500
ANTELSAT 06 May 22:40:03 22:44:06 40° 99° (E) 22:48:05 437.575/2403.000
GONETS M04 06 May 22:43:03 22:48:45 19° 81° (E) 22:54:26
RS-15 06 May 22:48:27 22:58:21 33° 314° (NW) 23:08:48 29.354- 29.394
O/OREOS (USA 219) 06 May 22:54:19 22:55:47 11° 59° (ENE) 22:57:15 437.305
PCSat 06 May 22:57:13 23:00:18 15° 51° (NE) 23:03:23 145.827
CUBEBUG 1 06 May 22:58:01 23:01:42 27° 71° (ENE) 23:05:24 437.445
ESTCUBE 1 06 May 23:10:57 23:15:20 57° 75° (ENE) 23:19:44 437.505/2401.250
DUCHIFAT 1 06 May 23:11:12 23:13:14 13° 94° (E) 23:15:16 145.980
UKube-1 06 May 23:16:08 23:19:58 31° 72° (ENE) 23:23:47 .
QB50P2 06 May 23:17:15 23:20:18 19° 95° (E) 23:23:20 145.880/145.840
DX 1 06 May 23:18:01 23:22:06 42° 73° (ENE) 23:26:14 434.975-435.025
POLYITAN 1 06 May 23:19:27 23:22:31 20° 95° (E) 23:25:35 437.675
POPSAT HIP 1 06 May 23:20:46 23:23:51 20° 95° (E) 23:26:56 437.405
QB50P1 06 May 23:23:22 23:26:39 22° 96° (E) 23:29:53 145.935-145.965
50 SAT 06 May 23:26:53 23:30:31 74° 77° (ENE) 23:34:09 437.505
Cosmos 2499 06 May 23:28:52 23:32:56 16° 83° (E) 23:36:59 435.465 / 435.565
HUMSAT D 06 May 23:29:31 23:31:33 13° 266° (W) 23:33:37 437.325/437.525
BUGSAT 1 06 May 23:34:36 23:35:36 11° 93° (E) 23:36:37 437.445
UNISAT 6 06 May 23:34:36 23:38:36 40° 287° (WNW) 23:42:34 437.425
VELOX 1 06 May 23:36:56 23:41:21 82° 75° (ENE) 23:45:50 145.980
SPROUT 06 May 23:37:29 23:41:07 27° 72° (ENE) 23:44:46 437.525
